EUTELSAT 9B (41310 NORAD) Tracking and Keplerian Element Data

This shows tracking and keplerian element data for the satellite.

Feedback or suggestion? Click here.




ElementValue
Catalog41310
NameEUTELSAT 9B
Epoch Orbit3067
Epoch Day157.06251472
Epoch Year2024
RAAN74.7294
Inclination0.0619
Eccentricity0.0001264
Argument of Perigee333.92
Mean Anonmoly236.8099
Mean Motion1.0027124
Decay Rate6.5E-07
L11 41310U 16005A 24157.06251472 .00000065 00000+0 00000+0 0 9996
L22 41310 0.0619 74.7294 0001264 333.9200 236.8099 1.00271240 30673



Live tracking and technical data element details for EUTELSAT 9B (NORAD 41310). EUTELSAT 9B can be tracked NOW for your location showing map with azimuth and elevation plus other details from your city location.







IsCatalogInMostPopularTable: catalog: 41310, numindb: 647
Update: records affected: 1



GetName: 41310 EUTELSAT 9B

Hit Count: updated at: Mon, 17 Jun 2024 22:16:46 GMT